Torna al catalogo

CZ-6A DEB

AttivoPO
NORAD 61142·DEBRIS·🇨🇳 China

Lanciato Aug 6, 2024 da Taiyuan Satellite Launch Center

Loading…

Prossimi Passaggi (prossime 24 ore)

TLE

AggiornatoSource: Space-Track

Epoca: Sep 13, 2026, 22:11 UTC

1 61142U 24140QL  26256.92473647  .00001032  00000-0  22180-3 0  9990
2 61142  88.8354 244.2227 0104932 310.0776  49.1267 14.54441726109331

Traccia CZ-6A DEB in tempo reale con AllMySat

Download on the App Store